CZ-6A DEB, 54496

Orbit data source: Space-Track

CZ-6A DEB, 54496 is space debris in SSO originally from a launch on Fri, 11 Nov 2022 UTC launched from the Taiyaun Space Center, China (TSC). Debris objects in space refer to the collection of defunct objects orbiting the Earth. Examples of debris include non-operational satellites, rocket bodies, and fragments generated from explosions, collisions, or faulty payload assembly.

Loading next visibility...
Identifier
54496, 2022-151HY
Orbit
SSO
Country
Flag of CNCN / PRC
Related business
Manufacturer
SAST
Mission
Spacecraft
Bus & Motor
Unknown
Mass
Unknown
Launch date (UTC)
2022-11-11 (4 years ago)
Launch vehicle
Unknown
Launch site
Taiyaun Space Center, China (TSC)
Object type
Payload
Rocket body
Debris
Shape & HBR
Unknown shape, 0.1 m
Radar Cross Section
Medium (>0.1 m² and <1 m²)

Expand to show TLE details & history
Last TLE update: 2 days ago

TLE from 2 days ago
0 CZ-6A DEB
1 54496U 22151HY  26171.25713227  .00004539  00000-0  12548-2 0  9998
2 54496  99.1192 275.6741 0116509 102.9585 258.4644 14.43302031188073
Epoch: 2026-06-20T06:10Z
TLE epoch observation values (Epoch: 2026-06-20T06:10:16.228Z)
Latitude
0.00004°
Longitude
-85.36788°
Altitude
768.074 km
Speed
7.461 km/s
True Right ascension
18h 22m 41s
True Declination
0° 00' 00"
Sunlit
Object was in full shadow at epoch
Visualization orbit readout
Latitude
Unknown
Longitude
Unknown
Altitude
Unknown
Speed
Unknown
Apparent Right ascension
Unknown
Apparent Declination
Unknown
Sunlit
N/A
Visualization observer readout
Local Sidereal Time
21:34:02
Azimuth
Unknown
Elevation
Unknown
Doppler factor
Unknown
Orbital elements
Apogee altitude
827.745 km
Perigee altitude
661.768 km
Semi-major axis
7,122.894 km
Eccentricity
0.01165
Inclination
99.1192°
RAAN
275.6741°
Arg. of periapsis
102.9585°
True anomaly
257.16019°
Mean anomaly
258.4644°
Eccentric anomaly
257.8119°
Mean motion
3.61043 °/min
Orbital period
99.71 mins
BSTAR
0.0012548
Loading maneuver chart data...
Computing Atmospheric mass density...
Loading historical data...
Loading historical data...
Loading historical data...
Loading historical data...
Loading historical data...
Loading historical data...
Loading historical data...

Documentation

Showing up to 5 results
|